Showing default

GGSE 5, 2834

Orbit data source: Space-Track

GGSE 5, 2834 is an American payload satellite in LEO that was launched on Wed, 31 May 1967 UTC via a THOR SLV-2 AGENA D launch vehicle from the Air Force Western Test Range (AFWTR). Payload-class satellites include a variety of spacecraft equipped with specific instruments for various scientific and technological missions. These include communications satellites like Starlink; space stations such as the ISS; scientific satellites like the Hubble; Earth observation satellites from companies like Planet Labs, Umbra, and HawkEye 360; GPS; miniature CubeSats for education and research; and military/defense satellites.

Loading next visibility...
Identifier
2834, 1967-053D
Orbit
LEO
Last TLE update
11 hours ago
Origin
Manufacturer
NRL
Mission
Defense Technology
Bus & Motor
NRL MULTI, Unknown motor
Mass
105 kg wet, 105 kg dry
Launch date (UTC)
1967-05-31 (58 years ago)
Launch vehicle
THOR SLV-2 AGENA D
Launch site
Air Force Western Test Range (AFWTR)
Object type
Payload
Rocket body
Debris
Shape & HBR
Ell + 2 Ant, 18 m
Radar Cross Section
1.247 m², Medium (>0.1 m² and < 1m²)

Expand to show TLE details & history

TLE from 11 hours ago
0 GGSE 5
1 02834U 67053D   25128.88418018  .00000021  00000-0  54200-4 0  9992
2 02834  69.9723 278.7182 0007217 352.9462   7.1540 13.96125946949700
Epoch: 2025-05-08T21:13Z
Definitive object data (Epoch: 2025-05-08T21:13:13.167Z)
Latitude
-0.00009°
Longitude
93.46503°
Altitude
904.334 km
Speed
7.403 km/s
True Right ascension
18h 34m 52s
True Declination
0° 00' 00"
Sunlit
Object was in full shadow at TLE epoch
Visualization TLE readout
Latitude
57.44475°
Longitude
-122.11354°
Altitude
919.218 km
Speed
7.397 km/s
Apparent Right ascension
04h 13m 42s
Apparent Declination
13° 06' 22"
Sunlit
Object is in daylight
Visualization observer readout
Local Sidereal Time
16:14:38
Azimuth
0.283° NNE
Elevation
-36.977°
Doppler factor
1
Orbital elements
Apogee altitude
910.544 km
Perigee altitude
900.031 km
Semi-major axis
7,283.424 km
Eccentricity
0.0007217
Inclination
69.9723°
RAAN
278.7182°
Arg. of periapsis
352.9462°
True anomaly
7.16431°
Mean anomaly
7.154°
Eccentric anomaly
7.15915°
Mean motion
3.49172 °/min
BSTAR
0.0000542
Orbital period
103.1 mins
Loading maneuver chart data...
Loading SW <> Apogee altitude chart data...
Loading historical data...
Loading historical data...
Loading historical data...
Loading historical data...
Loading historical data...
Loading historical data...
Loading historical data...

GGSE 5 Visibility forecast

Observer location: undefined°, undefined°

Span
Click to sort rows by Start time (UTC) header in descending order
Start Az.
Max El. time (UTC)
Max El. Az.
Max El.
End time (UTC)
End Az.
10 mins2025-05-09 11:05:31.992Z187.802° SSW2025-05-09 11:10:31.992Z105.348° ESE41.619°2025-05-09 11:15:31.992Z32.485° NE
7 mins2025-05-09 12:53:31.992Z271.683° WNW2025-05-09 12:56:31.992Z309.191° NW20.507°2025-05-09 13:00:31.992Z355.128° N
9 mins2025-05-09 20:08:31.992Z0.684° NNE2025-05-09 20:12:31.992Z63.717° ENE30.996°2025-05-09 20:17:31.992Z123.224° SE
9 mins2025-05-09 21:53:31.992Z311.555° NW2025-05-09 21:57:31.992Z259.792° W28.969°2025-05-09 22:02:31.992Z195.209° SSW
|